| time (UTC) | temp C | wind direction | speed KPH | gust KPH | rain 1hr cm | rain 24hr cm | rain mn cm | humidity % | barometer mb |
| 20260831131330 | 18 | 125 | 0.0 | 3.2 | 0.00 | 0.00 | 0.03 | 86 | 1010.5 |
| 20260831130822 | 18 | 0.0 | 0.0 | 0.00 | 0.00 | 0.03 | 86 | ||
| 20260831130125 | 18 | 131 | 0.0 | 6.4 | 0.00 | 0.00 | 0.03 | 86 | 1010.6 |
| 20260831125337 | 18 | 0.0 | 0.0 | 0.00 | 0.00 | 0.03 | 87 | ||
| 20260831124310 | 18 | 108 | 0.0 | 3.2 | 0.00 | 0.00 | 0.03 | 87 | 1011.1 |
| 20260831123759 | 18 | 0.0 | 0.0 | 0.00 | 0.00 | 0.03 | 88 | ||
| 20260831122725 | 18 | 112 | 0.0 | 1.6 | 0.00 | 0.00 | 0.03 | 88 | 1010.8 |
| 20260831122209 | 17 | 191 | 0.0 | 0.0 | 0.00 | 0.00 | 0.03 | 89 | 1010.6 |
| 20260831121343 | 17 | 191 | 0.0 | 0.0 | 0.00 | 0.00 | 0.03 | 89 | 1010.9 |
| 20260831120832 | 17 | 0.0 | 0.0 | 0.00 | 0.00 | 0.03 | 90 | ||
| 20260831115800 | 17 | 191 | 0.0 | 0.0 | 0.00 | 0.00 | 0.03 | 90 | 1010.9 |
| 20260831115241 | 17 | 0.0 | 0.0 | 0.00 | 0.00 | 0.03 | 90 | ||
| 20260831114534 | 17 | 0.0 | 0.0 | 0.00 | 0.00 | 0.03 | 91 | ||
| 20260831114409 | 17 | 191 | 0.0 | 0.0 | 0.00 | 0.00 | 0.03 | 90 | 1010.8 |
| 20260831112807 | 17 | 191 | 0.0 | 0.0 | 0.00 | 0.00 | 0.03 | 91 | 1011.1 |
| 20260831112307 | 16 | 0.0 | 0.0 | 0.00 | 0.00 | 0.03 | 91 | ||
| 20260831111514 | 16 | 191 | 0.0 | 0.0 | 0.00 | 0.00 | 0.03 | 91 | 1011.0 |
| 20260831110740 | 16 | 0.0 | 0.0 | 0.00 | 0.00 | 0.03 | 91 | ||
| 20260831105825 | 16 | 192 | 0.0 | 0.0 | 0.03 | 0.03 | 0.03 | 91 | 1011.0 |
| 20260831105325 | 16 | 0.0 | 0.0 | 0.00 | 0.00 | 0.00 | 91 | ||
| 20260831104246 | 16 | 63 | 0.0 | 0.0 | 0.00 | 0.00 | 0.00 | 91 | 1011.1 |
| 20260831104240 | 16 | 0.0 | 0.0 | 0.00 | 0.00 | 0.00 | 91 | ||
| 20260831102811 | 16 | 62 | 0.0 | 0.0 | 0.00 | 0.00 | 0.00 | 91 | 1010.8 |
| 20260831102255 | 16 | 0.0 | 0.0 | 0.00 | 0.00 | 0.00 | 91 | ||
| 20260831101233 | 16 | 62 | 0.0 | 0.0 | 0.00 | 0.00 | 0.00 | 91 | 1010.8 |
| 20260831100731 | 16 | 62 | 0.0 | 0.0 | 0.00 | 0.00 | 0.00 | 91 | 1010.6 |
| 20260831100058 | 16 | 62 | 0.0 | 0.0 | 0.00 | 0.00 | 0.00 | 91 | 1010.8 |
| 20260831095545 | 16 | 0.0 | 0.0 | 0.00 | 0.00 | 0.00 | 92 | ||
| 20260831094245 | 16 | 62 | 0.0 | 1.6 | 0.00 | 0.00 | 0.00 | 92 | 1011.0 |
| 20260831093738 | 16 | 0.0 | 0.0 | 0.00 | 0.00 | 0.00 | 92 | ||
| 20260831092824 | 16 | 138 | 0.0 | 1.6 | 0.00 | 0.00 | 0.00 | 92 | 1009.9 |
| 20260831092301 | 16 | 0.0 | 0.0 | 0.00 | 0.00 | 0.00 | 92 | ||
| 20260831091611 | 16 | 101 | 0.0 | 3.2 | 0.00 | 0.00 | 0.00 | 92 | 1010.2 |
| 20260831090840 | 16 | 0.0 | 0.0 | 0.00 | 0.00 | 0.00 | 92 | ||
| 20260831085942 | 16 | 107 | 1.6 | 4.8 | 0.00 | 0.00 | 0.00 | 92 | 1009.5 |
| 20260831085203 | 16 | 99 | 0.0 | 0.0 | 0.00 | 0.00 | 0.00 | 92 | 1009.6 |
| 20260831084239 | 16 | 131 | 0.0 | 1.6 | 0.00 | 0.00 | 0.00 | 92 | 1009.6 |
| 20260831083738 | 16 | 0.0 | 0.0 | 0.00 | 0.00 | 0.00 | 92 | ||
| 20260831082816 | 16 | 124 | 0.0 | 3.2 | 0.00 | 0.00 | 0.00 | 92 | 1010.0 |
| 20260831082311 | 16 | 0.0 | 0.0 | 0.00 | 0.00 | 0.00 | 93 | ||
| 20260831081252 | 16 | 166 | 0.0 | 1.6 | 0.00 | 0.00 | 0.00 | 93 | 1010.0 |
| 20260831080747 | 15 | 0.0 | 0.0 | 0.00 | 0.00 | 0.00 | 92 | ||
| 20260831075831 | 15 | 102 | 0.0 | 0.0 | 0.00 | 0.00 | 0.00 | 92 | 1010.3 |
| 20260831075330 | 15 | 0.0 | 0.0 | 0.00 | 0.00 | 0.00 | 92 | ||
| 20260831074230 | 15 | 297 | 0.0 | 0.0 | 0.00 | 0.00 | 0.00 | 92 | 1010.8 |
| 20260831074000 | 15 | 0.0 | 0.0 | 0.00 | 0.00 | 0.00 | 92 | ||
| 20260831072817 | 15 | 297 | 0.0 | 0.0 | 0.00 | 0.00 | 0.00 | 92 | 1010.9 |
| 20260831072318 | 15 | 0.0 | 0.0 | 0.00 | 0.00 | 0.00 | 92 | ||
| 20260831071258 | 15 | 297 | 0.0 | 0.0 | 0.00 | 0.00 | 0.00 | 92 | 1011.0 |
| 20260831070757 | 15 | 0.0 | 0.0 | 0.00 | 0.00 | 0.00 | 92 | ||
| 20260831065831 | 15 | 297 | 0.0 | 0.0 | 0.00 | 0.00 | 0.00 | 92 | 1011.4 |
| 20260831065326 | 15 | 0.0 | 0.0 | 0.00 | 0.00 | 0.00 | 92 | ||
| 20260831064305 | 15 | 297 | 0.0 | 0.0 | 0.00 | 0.00 | 0.00 | 92 | 1011.3 |
| 20260831063756 | 15 | 0.0 | 0.0 | 0.00 | 0.00 | 0.00 | 92 | ||
| 20260831062829 | 15 | 294 | 0.0 | 0.0 | 0.00 | 0.00 | 0.00 | 92 | 1011.4 |
| 20260831062326 | 15 | 0.0 | 0.0 | 0.00 | 0.00 | 0.00 | 92 | ||
| 20260831061307 | 15 | 294 | 0.0 | 0.0 | 0.00 | 0.00 | 0.00 | 92 | 1011.5 |
| 20260831060806 | 16 | 294 | 0.0 | 0.0 | 0.00 | 0.00 | 0.00 | 91 | 1011.4 |
| 20260831060045 | 16 | 294 | 0.0 | 0.0 | 0.00 | 0.00 | 0.00 | 91 | 1011.7 |
| 20260831055306 | 16 | 0.0 | 0.0 | 0.00 | 0.00 | 0.00 | 91 | ||
| 20260831054241 | 16 | 294 | 0.0 | 0.0 | 0.00 | 0.00 | 0.00 | 91 | 1012.1 |
| 20260831053729 | 16 | 0.0 | 0.0 | 0.00 | 0.00 | 0.00 | 91 | ||
| 20260831052507 | 16 | 296 | 0.0 | 0.0 | 0.00 | 0.00 | 0.00 | 91 | 1012.2 |
| 20260831052005 | 16 | 175 | 0.0 | 0.0 | 0.00 | 0.00 | 0.00 | 91 | 1011.9 |
| 20260831051241 | 16 | 175 | 0.0 | 0.0 | 0.00 | 0.00 | 0.00 | 91 | 1011.8 |
| 20260831050741 | 16 | 0.0 | 0.0 | 0.00 | 0.00 | 0.00 | 91 | ||
| 20260831045816 | 16 | 146 | 0.0 | 0.0 | 0.00 | 0.00 | 0.00 | 91 | 1011.5 |
| 20260831045305 | 16 | 92 | 0.0 | 0.0 | 0.00 | 0.00 | 0.00 | 91 | 1011.5 |
| 20260831044407 | 16 | 93 | 0.0 | 0.0 | 0.00 | 0.00 | 0.00 | 91 | 1011.8 |
| 20260831043902 | 16 | 0.0 | 0.0 | 0.00 | 0.00 | 0.00 | 90 | 1012.0 | |
| 20260831042757 | 16 | 41 | 0.0 | 0.0 | 0.00 | 0.00 | 0.00 | 90 | 1012.5 |
| 20260831042252 | 16 | 0.0 | 0.0 | 0.00 | 0.00 | 0.00 | 90 | ||
| 20260831041322 | 16 | 41 | 0.0 | 0.0 | 0.00 | 0.00 | 0.00 | 90 | 1012.6 |
| 20260831040812 | 16 | 0.0 | 0.0 | 0.00 | 0.00 | 0.00 | 90 | ||
| 20260831035849 | 16 | 41 | 0.0 | 0.0 | 0.00 | 0.00 | 0.00 | 90 | 1012.6 |
| 20260831035339 | 17 | 0.0 | 0.0 | 0.00 | 0.00 | 0.00 | 90 | ||
| 20260831034312 | 17 | 41 | 0.0 | 0.0 | 0.00 | 0.00 | 0.00 | 90 | 1012.0 |
| 20260831033803 | 17 | 0.0 | 0.0 | 0.00 | 0.00 | 0.00 | 90 | ||
| 20260831033110 | 17 | 193 | 0.0 | 0.0 | 0.00 | 0.00 | 0.00 | 90 | 1012.6 |
| 20260831032328 | 17 | 0.0 | 0.0 | 0.00 | 0.00 | 0.00 | 89 | ||
| 20260831031353 | 17 | 175 | 0.0 | 0.0 | 0.00 | 0.00 | 0.00 | 89 | 1012.7 |
| 20260831030843 | 17 | 0.0 | 0.0 | 0.00 | 0.00 | 0.00 | 89 | ||
| 20260831025257 | 17 | 0.0 | 0.0 | 0.00 | 0.00 | 0.10 | 89 | ||
| 20260831024510 | 17 | 86 | 0.0 | 1.6 | 0.00 | 0.00 | 0.10 | 89 | 1012.7 |
| 20260831023738 | 17 | 0.0 | 0.0 | 0.00 | 0.00 | 0.10 | 90 | ||
| 20260831022554 | 17 | 0.0 | 0.0 | 0.00 | 0.00 | 0.10 | 90 | ||
| 20260831021250 | 17 | 79 | 0.0 | 9.7 | 0.00 | 0.00 | 0.10 | 90 | 1012.9 |
| 20260831020742 | 17 | 0.0 | 0.0 | 0.00 | 0.00 | 0.10 | 90 | ||
| 20260831015816 | 17 | 81 | 4.8 | 12.9 | 0.00 | 0.00 | 0.10 | 90 | 1013.1 |
| 20260831015258 | 17 | 0.0 | 0.0 | 0.00 | 0.00 | 0.10 | 90 | ||
| 20260831014434 | 17 | 110 | 3.2 | 14.5 | 0.00 | 0.00 | 0.10 | 90 | 1012.9 |
| 20260831013915 | 17 | 0.0 | 0.0 | 0.00 | 0.00 | 0.10 | 90 | ||
| 20260831012840 | 17 | 66 | 0.0 | 0.0 | 0.00 | 0.00 | 0.10 | 90 | 1013.2 |
| 20260831012330 | 17 | 80 | 1.6 | 11.3 | 0.00 | 0.00 | 0.10 | 90 | 1013.3 |
| 20260831011820 | 17 | 113 | 3.2 | 9.7 | 0.00 | 0.00 | 0.10 | 90 | 1013.3 |
| 20260831011316 | 17 | 107 | 4.8 | 9.7 | 0.00 | 0.00 | 0.10 | 90 | 1013.4 |
| 20260831010816 | 17 | 0.0 | 0.0 | 0.00 | 0.00 | 0.10 | 90 | ||
| 20260831005746 | 17 | 135 | 4.8 | 19.3 | 0.00 | 0.00 | 0.10 | 90 | 1013.2 |
| 20260831005244 | 17 | 0.0 | 0.0 | 0.00 | 0.00 | 0.10 | 90 | ||
| 20260831004315 | 17 | 125 | 0.0 | 8.0 | 0.00 | 0.00 | 0.10 | 90 | 1013.9 |
| 20260831004025 | 17 | 0.0 | 0.0 | 0.00 | 0.00 | 0.10 | 90 | ||
| 20260831002839 | 17 | 134 | 0.0 | 1.6 | 0.00 | 0.00 | 0.10 | 90 | 1014.2 |
| 20260831002337 | 17 | 0.0 | 0.0 | 0.00 | 0.00 | 0.10 | 89 | ||
| 20260831001311 | 17 | 108 | 1.6 | 12.9 | 0.00 | 0.00 | 0.10 | 89 | 1014.0 |
| 20260831000754 | 17 | 0.0 | 0.0 | 0.00 | 0.00 | 0.10 | 89 | ||
| 20260830235744 | 18 | 0.0 | 0.0 | 0.00 | 0.00 | 0.05 | 88 | ||
| 20260830235737 | 18 | 167 | 1.6 | 9.7 | 0.05 | 0.05 | 0.10 | 89 | 1014.5 |
| 20260830234323 | 18 | 115 | 12.9 | 22.5 | 0.05 | 0.05 | 0.05 | 88 | 1015.5 |
| 20260830233809 | 18 | 0.0 | 0.0 | 0.00 | 0.00 | 0.00 | 88 | ||
| 20260830232845 | 18 | 216 | 11.3 | 27.4 | 0.00 | 0.00 | 0.00 | 88 | 1015.9 |
| 20260830232335 | 18 | 0.0 | 0.0 | 0.00 | 0.00 | 0.00 | 88 | ||
| 20260830231309 | 18 | 136 | 4.8 | 9.7 | 0.00 | 0.00 | 0.00 | 88 | 1011.7 |
| 20260830231029 | 18 | 0.0 | 0.0 | 0.00 | 0.00 | 0.00 | 88 | ||
| 20260830225734 | 18 | 120 | 3.2 | 14.5 | 0.00 | 0.00 | 0.00 | 88 | 1011.2 |
| 20260830225228 | 18 | 175 | 3.2 | 0.0 | 0.00 | 0.00 | 0.00 | 88 | 1011.4 |
| 20260830224547 | 18 | 92 | 6.4 | 17.7 | 0.00 | 0.00 | 0.00 | 87 | 1011.3 |
| 20260830223801 | 18 | 0.0 | 0.0 | 0.00 | 0.00 | 0.00 | 87 | ||
| 20260830222829 | 18 | 120 | 1.6 | 12.9 | 0.00 | 0.00 | 0.00 | 87 | 1011.8 |
| 20260830222314 | 18 | 0.0 | 0.0 | 0.00 | 0.00 | 0.00 | 86 | ||
| 20260830221849 | 18 | 151 | 0.0 | 0.0 | 0.00 | 0.00 | 0.00 | 86 | 1012.3 |
| 20260830220837 | 18 | 0.0 | 0.0 | 0.00 | 0.00 | 0.00 | 86 | ||
| 20260830215809 | 18 | 159 | 3.2 | 4.8 | 0.00 | 0.00 | 0.00 | 86 | 1012.6 |
| 20260830215254 | 18 | 0.0 | 0.0 | 0.00 | 0.00 | 0.00 | 86 | ||
| 20260830214236 | 18 | 185 | 3.2 | 24.1 | 0.00 | 0.00 | 0.00 | 86 | 1011.1 |
| 20260830213506 | 19 | 111 | 4.8 | 14.5 | 0.00 | 0.00 | 0.00 | 86 | |
| 20260830212833 | 19 | 131 | 3.2 | 12.9 | 0.00 | 0.00 | 0.00 | 86 | 1010.9 |
| 20260830212326 | 19 | 0.0 | 0.0 | 0.00 | 0.00 | 0.00 | 85 | ||
| 20260830211958 | 19 | 147 | 0.0 | 1.6 | 0.00 | 0.00 | 0.00 | 85 | 1011.3 |
| 20260830210725 | 19 | 127 | 0.0 | 0.0 | 0.00 | 0.00 | 0.00 | 85 | 1011.2 |
| 20260830205821 | 19 | 140 | 1.6 | 11.3 | 0.00 | 0.00 | 0.00 | 85 | 1012.1 |
| 20260830205318 | 19 | 0.0 | 0.0 | 0.00 | 0.00 | 0.00 | 84 | ||
| 20260830204540 | 19 | 149 | 1.6 | 1.6 | 0.00 | 0.00 | 0.00 | 84 | 1013.0 |
| 20260830203755 | 20 | 0.0 | 0.0 | 0.00 | 0.00 | 0.00 | 84 | ||
| 20260830202837 | 20 | 107 | 4.8 | 14.5 | 0.00 | 0.00 | 0.00 | 84 | 1010.7 |
| 20260830202331 | 20 | 0.0 | 0.0 | 0.00 | 0.00 | 0.00 | 84 | ||
| 20260830201313 | 20 | 110 | 3.2 | 6.4 | 0.00 | 0.00 | 0.00 | 84 | 1011.5 |
| 20260830200754 | 20 | 0.0 | 0.0 | 0.00 | 0.00 | 0.00 | 84 | ||
| 20260830195823 | 20 | 130 | 1.6 | 20.9 | 0.00 | 0.00 | 0.00 | 84 | 1011.3 |
| 20260830195315 | 20 | 0.0 | 0.0 | 0.00 | 0.00 | 0.00 | 84 | ||
| 20260830194256 | 20 | 108 | 1.6 | 3.2 | 0.00 | 0.00 | 0.00 | 84 | 1011.1 |
| 20260830193756 | 20 | 0.0 | 0.0 | 0.00 | 0.00 | 0.00 | 84 | ||
| 20260830192832 | 20 | 152 | 1.6 | 16.1 | 0.00 | 0.00 | 0.00 | 84 | 1011.3 |
| 20260830192328 | 20 | 0.0 | 0.0 | 0.00 | 0.00 | 0.00 | 84 | ||
| 20260830191542 | 20 | 131 | 1.6 | 12.9 | 0.00 | 0.00 | 0.00 | 84 | 1011.4 |
| 20260830190810 | 20 | 123 | 1.6 | 12.9 | 0.00 | 0.00 | 0.00 | 83 | 1011.4 |
| 20260830190312 | 20 | 189 | 0.0 | 12.9 | 0.00 | 0.00 | 0.00 | 84 | 1011.3 |
| 20260830190140 | 20 | 120 | 0.0 | 1.6 | 0.00 | 0.00 | 0.00 | 84 | 1011.5 |
| 20260830190036 | 20 | 0.0 | 0.0 | 0.00 | 0.00 | 0.00 | 84 | ||
| 20260830184342 | 20 | 131 | 0.0 | 11.3 | 0.00 | 0.00 | 0.00 | 84 | 1011.4 |
| 20260830183827 | 20 | 0.0 | 0.0 | 0.00 | 0.00 | 0.00 | 83 | ||
| 20260830182811 | 20 | 143 | 0.0 | 1.6 | 0.00 | 0.00 | 0.00 | 83 | 1011.9 |
| 20260830182308 | 20 | 0.0 | 0.0 | 0.00 | 0.00 | 0.00 | 83 | ||
| 20260830181346 | 20 | 205 | 0.0 | 1.6 | 0.00 | 0.00 | 0.00 | 83 | 1012.4 |
| 20260830180832 | 20 | 0.0 | 0.0 | 0.00 | 0.00 | 0.00 | 83 | ||
| 20260830175809 | 20 | 166 | 1.6 | 8.0 | 0.00 | 0.00 | 0.00 | 83 | 1011.8 |
| 20260830175305 | 20 | 0.0 | 0.0 | 0.00 | 0.00 | 0.00 | 83 | ||
| 20260830174333 | 20 | 106 | 0.0 | 1.6 | 0.00 | 0.00 | 0.00 | 83 | 1011.8 |
| 20260830173833 | 20 | 0.0 | 0.0 | 0.00 | 0.00 | 0.00 | 83 | ||
| 20260830172811 | 20 | 191 | 0.0 | 0.0 | 0.00 | 0.00 | 0.00 | 83 | 1011.9 |
| 20260830172538 | 20 | 0.0 | 0.0 | 0.00 | 0.00 | 0.00 | 83 | ||
| 20260830171342 | 20 | 200 | 0.0 | 1.6 | 0.00 | 0.00 | 0.00 | 83 | 1012.7 |
| 20260830170833 | 20 | 0.0 | 0.0 | 0.00 | 0.00 | 0.00 | 82 | ||
| 20260830165807 | 20 | 134 | 0.0 | 3.2 | 0.00 | 0.00 | 0.00 | 82 | 1012.9 |
| 20260830165534 | 20 | 0.0 | 0.0 | 0.00 | 0.00 | 0.00 | 82 | ||
| 20260830164335 | 20 | 113 | 0.0 | 1.6 | 0.00 | 0.00 | 0.00 | 82 | 1012.9 |
| 20260830164105 | 20 | 0.0 | 0.0 | 0.00 | 0.00 | 0.00 | 82 | ||
| 20260830162811 | 20 | 137 | 0.0 | 1.6 | 0.00 | 0.00 | 0.00 | 82 | 1013.0 |
| 20260830162306 | 20 | 0.0 | 0.0 | 0.00 | 0.00 | 0.00 | 82 | ||
| 20260830161254 | 20 | 100 | 0.0 | 1.6 | 0.00 | 0.00 | 0.00 | 82 | 1013.6 |
| 20260830160753 | 20 | 0.0 | 0.0 | 0.00 | 0.00 | 0.00 | 81 | ||
| 20260830155838 | 20 | 94 | 0.0 | 1.6 | 0.00 | 0.00 | 0.00 | 82 | 1013.3 |
| 20260830155606 | 20 | 0.0 | 0.0 | 0.00 | 0.00 | 0.00 | 81 | ||
| 20260830154538 | 20 | 126 | 0.0 | 1.6 | 0.00 | 0.00 | 0.00 | 81 | 1013.5 |
| 20260830153759 | 20 | 0.0 | 0.0 | 0.00 | 0.00 | 0.00 | 80 | ||
| 20260830152733 | 20 | 126 | 1.6 | 9.7 | 0.00 | 0.00 | 0.00 | 80 | 1013.3 |
| 20260830152227 | 20 | 128 | 0.0 | 0.0 | 0.00 | 0.00 | 0.00 | 81 | 1013.3 |
| 20260830150817 | 20 | 0.0 | 0.0 | 0.00 | 0.00 | 0.00 | 80 | ||
| 20260830145854 | 20 | 103 | 0.0 | 8.0 | 0.00 | 0.00 | 0.00 | 80 | 1013.8 |
| 20260830145335 | 20 | 0.0 | 0.0 | 0.00 | 0.00 | 0.00 | 81 | ||
| 20260830144307 | 20 | 185 | 4.8 | 12.9 | 0.00 | 0.00 | 0.00 | 80 | 1014.1 |
| 20260830143756 | 20 | 0.0 | 0.0 | 0.00 | 0.00 | 0.00 | 80 | ||
| 20260830142831 | 20 | 111 | 1.6 | 9.7 | 0.00 | 0.00 | 0.00 | 80 | 1014.1 |
| 20260830142328 | 20 | 0.0 | 0.0 | 0.00 | 0.00 | 0.00 | 79 | ||
| 20260830141047 | 20 | 95 | 3.2 | 20.9 | 0.00 | 0.00 | 0.00 | 79 | 1014.1 |
| 20260830140532 | 20 | 0.0 | 16.1 | 0.00 | 0.00 | 0.00 | 78 | ||
| 20260830135816 | 20 | 0.0 | 0.0 | 0.00 | 0.00 | 0.00 | 80 | ||
| 20260830134442 | 20 | 0.0 | 0.0 | 0.00 | 0.00 | 0.00 | 80 | 1014.3 | |
| 20260830132910 | 19 | 115 | 6.4 | 0.0 | 0.00 | 0.00 | 0.00 | 80 | 1014.5 |
| 20260830132641 | 19 | 0.0 | 0.0 | 0.00 | 0.00 | 0.00 | 80 |